Showing default

GSAT 15, 41028

Orbit data source: Space-Track

GSAT 15, 41028 is a payload satellite owned by ISRO (IN) in GEO that was launched on Tue, 10 Nov 2015 UTC via an ARIANE 5ECA launch vehicle from the French Guiana (FRGUI). Payload-class satellites include a variety of spacecraft equipped with specific instruments for various scientific and technological missions. These include communications satellites like Starlink; space stations such as the ISS; scientific satellites like the Hubble; Earth observation satellites from companies like Planet Labs, Umbra, and HawkEye 360; GPS; miniature CubeSats for education and research; and military/defense satellites.

Not visible in the next 10 days
Identifier
41028, 2015-065A
Orbit
GEO
Last TLE update
12 hours ago
Origin
Manufacturer
ISRO SAC/Banga
Mission
Operational Civil Communications
Bus & Motor
I3K, ISRO LAM
Mass
3,165 kg wet, ~1,200 kg dry
Launch date (UTC)
2015-11-10 (9 years ago)
Launch vehicle
ARIANE 5ECA
Launch site
French Guiana (FRGUI)
Object type
Payload
Rocket body
Debris
Shape & HBR
Box + 2 Pan, 15.5 m
Radar Cross Section
15.451 m², Large (>1 m²)

Expand to show TLE details & history

TLE from 12 hours ago
0 GSAT 15
1 41028U 15065A   25128.88358389 -.00000253  00000-0  00000-0 0  9993
2 41028   0.0398 255.3841 0004125 151.5679 231.5941  1.00273449 34744
Epoch: 2025-05-08T21:12Z
Definitive object data (Epoch: 2025-05-08T21:12:21.648Z)
Latitude
0.02278°
Longitude
93.46787°
Altitude
35,796.468 km
Speed
3.074 km/s
True Right ascension
18h 34m 01s
True Declination
0° 01' 22"
Sunlit
Object was in daylight at TLE epoch
Visualization TLE readout
Latitude
-0.02823°
Longitude
-80.07817°
Altitude
35,776.412 km
Speed
3.075 km/s
Apparent Right ascension
06h 52m 09s
Apparent Declination
-4° 59' 39"
Sunlit
Object is in daylight
Visualization observer readout
Local Sidereal Time
17:45:10
Azimuth
332.24° NNW
Elevation
-51.955°
Doppler factor
1
Orbital elements
Apogee altitude
35,804.592 km
Perigee altitude
35,769.806 km
Semi-major axis
42,165.336 km
Eccentricity
0.0004125
Inclination
0.0398°
RAAN
255.3841°
Arg. of periapsis
151.5679°
True anomaly
231.55707°
Mean anomaly
231.5941°
Eccentric anomaly
231.57558°
Mean motion
0.25067 °/min
BSTAR
Unknown
Orbital period
1436.13 mins
Loading historical data...
41028 neighbors
Loading maneuver chart data...
Loading SW <> Apogee altitude chart data...
Loading historical data...
Loading historical data...
Loading historical data...
Loading historical data...
Loading historical data...
Loading historical data...
Loading historical data...
Other satellites on launch #65 in the year 2015 (2015-11-10 UTC)

GSAT 15 Visibility forecast

Observer location: undefined°, undefined°

GSAT 15 is not visible in the next 10 days
Span
Click to sort rows by Start time (UTC) header in descending order
Start Az.
Max El. time (UTC)
Max El. Az.
Max El.
End time (UTC)
End Az.
|